THOR AGENA B R/B, 2174

Orbit data source: Space-Track

THOR AGENA B R/B, 2174 is space debris in SSO originally from a launch on Sun, 15 May 1966 UTC launched from the Air Force Western Test Range (AFWTR). Debris objects in space refer to the collection of defunct objects orbiting the Earth. Examples of debris include non-operational satellites, rocket bodies, and fragments generated from explosions, collisions, or faulty payload assembly.

Loading next visibility...
Identifier
2174, 1966-040B
Orbit
SSO
Country
Flag of USUS
Related business
Manufacturer
LMSC
Mission
Spacecraft
Bus & Motor
AGENA B, Unknown motor
Mass
600 kg wet, 600 kg dry
Launch date (UTC)
1966-05-15 (59 years ago)
Launch vehicle
Unknown
Launch site
Air Force Western Test Range (AFWTR)
Object type
Payload
Rocket body
Debris
Shape & HBR
Unknown
Radar Cross Section
Large (>1 m²)

Expand to show TLE details & history
Last TLE update: 22 hours ago

TLE from 22 hours ago
0 THOR AGENA B R/B
1 02174U 66040B   25286.51916006  .00000018  00000-0  12399-3 0  9997
2 02174 100.3130 205.3646 0055536 266.8886 267.1780 13.36281712896275
Epoch: 2025-10-13T12:27Z
TLE epoch observation values (Epoch: 2025-10-13T12:27:35.429Z)
Latitude
6.38947°
Longitude
177.30783°
Altitude
1,127.589 km
Speed
7.288 km/s
True Right ascension
01h 46m 06s
True Declination
6° 21' 12"
Sunlit
Object was in full shadow at epoch
Visualization orbit readout
Latitude
Unknown
Longitude
Unknown
Altitude
Unknown
Speed
Unknown
Apparent Right ascension
Unknown
Apparent Declination
Unknown
Sunlit
N/A
Visualization observer readout
Local Sidereal Time
04:43:03
Azimuth
Unknown
Elevation
Unknown
Doppler factor
Unknown
Orbital elements
Apogee altitude
1,162.159 km
Perigee altitude
1,078.87 km
Semi-major axis
7,498.651 km
Eccentricity
0.00555
Inclination
100.313°
RAAN
205.3646°
Arg. of periapsis
266.8886°
True anomaly
266.54261°
Mean anomaly
267.178°
Eccentric anomaly
266.86028°
Mean motion
3.34248 °/min
Orbital period
107.7 mins
BSTAR
0.00012399
Loading maneuver chart data...
Computing Atmospheric mass density...
Loading historical data...
Loading historical data...
Loading historical data...
Loading historical data...
Loading historical data...
Loading historical data...
Loading historical data...

Documentation

Showing up to 5 results
|